Regional Weather Roundup
Issued by NWS Albany, NY

Home | Current Version | Previous Version | Graphics & Text | Print | Product List | Glossary On
Versions: 1 2 3 4 5 6 7 8 9 10 11 12 13 14 15 16 17 18 19 20 21 22 23 24 25 26 27 28 29 30 31 32 33 34 35 36 37 38 39 40 41 42 43 44 45 46 47 48 49 50
000
ASUS41 KALY 090010
RWRALY

NEW YORK STATE HOURLY WEATHER ROUNDUP
NATIONAL WEATHER SERVICE ALBANY NY
800 PM EDT TUE JUL 08 2014

NOTE: "FAIR" INDICATES FEW OR NO CLOUDS BELOW 12,000 FEET WITH NO
SIGNIFICANT WEATHER AND/OR NO OBSTRUCTIONS TO VISIBILITY.

NYZ032-033-038>043-046>054-057>066-NYZ062>081-090100-
EAST


CITY           SKY/WX    TMP DP  RH WIND       PRES   REMARKS
ALBANY         PTCLDY    84  69  60 S14G24    29.58F
GLENS FALLS    CLEAR     81  69  67 S10       29.55F
POUGHKEEPSIE   MOCLDY    85  71  63 S6        29.64R HX  90
NEWBURGH       PTCLDY    84  70  61 SW14      29.67F
MONTGOMERY     MOCLDY    83  68  60 SW10      29.65S
WHITE PLAINS   PTCLDY    80  68  66 S9        29.69S
ISLIP          MOCLDY    78  69  73 S16G25    29.70F
NEW YORK CITY  MOCLDY    83  68  60 S12G17    29.67F
CENTRAL PARK   PTCLDY    85  69  58 VRB6      29.70F
$$

NYZ005>009-017-018-044>046-055-056-090100-
CENTRAL


CITY           SKY/WX    TMP DP  RH WIND       PRES   REMARKS
SYRACUSE       CLOUDY    78  66  66 SW25G37   29.57R
ROME           RAIN      71  67  87 SW15G28   29.58R
ELMIRA         MOCLDY    72  68  87 SW9       29.63R
BINGHAMTON     CLOUDY    70  66  87 SW14G22   29.67S
MONTICELLO     PTCLDY    79  68  69 S9        29.71S
$$

NYZ026>034-041>043-090100-
NORTH


CITY           SKY/WX    TMP DP  RH WIND       PRES   REMARKS
WATERTOWN      CLOUDY    70  65  84 SW16G35   29.51R
FORT DRUM      NOT AVBL
MASSENA        RAIN      73  71  93 E6        29.42F FOG
SARANAC LAKE   CLOUDY    76  64  66 S15G23    29.54F
PLATTSBURGH    PTCLDY    79  70  74 S10       29.49F
$$

NYZ001>004-010>016-019>021-090100-
WEST


CITY           SKY/WX    TMP DP  RH WIND       PRES   REMARKS
NIAGARA FALLS  MOCLDY    69  61  75 SW16      29.59F
BUFFALO        MOCLDY    70  63  78 W13       29.60F
DUNKIRK        PTCLDY    74  64  71 SW20G30   29.61F
JAMESTOWN      MOCLDY    68  63  83 SW13G22   29.69F
WELLSVILLE     MOCLDY    68  61  78 W10G21    29.70S
ROCHESTER      MOCLDY    73  63  70 W16       29.58R
PENN YAN       MOCLDY    73  61  65 W16       29.62R
$$

             KEY
       WCI = WIND CHILL INDEX
       VSB = VISIBILITY
       HX  = HEAT INDEX
$$


USA.gov is the U.S. government's official web portal to all federal, state and local government web resources and services.